Theta_e
339 338 338 337 337 336 336 335 334 332 329 329 329 331 331 332 331 330 328 327 327 328 326 324 322 320 318 316 314 312 311 309 307 306 304 303 303 303 303 303 302 302
339 339 338 337 337 336 336 335 333 330 329 329 330 331 332 331 331 329 327 327 328 327 325 323 321 319 317 315 313 311 309 306 304 302 302 302 302 302 302 302 302 301
339 339 338 337 337 336 335 334 331 330 330 331 332 332 332 331 330 328 327 327 328 327 325 322 321 318 316 314 312 309 306 303 302 301 301 301 301 301 301 301 301 301
338 339 338 337 336 336 335 333 331 331 331 331 331 331 331 329 328 327 327 327 328 327 325 322 320 318 315 313 310 306 303 301 301 301 301 301 301 301 301 301 301 300
338 338 337 336 336 335 333 332 332 332 331 331 330 330 330 329 327 327 328 327 328 327 325 321 319 317 314 312 308 304 302 301 301 301 301 301 301 301 301 301 300 300
338 338 337 336 335 334 333 333 332 332 332 331 330 330 329 328 327 327 327 327 326 327 325 321 319 316 313 309 305 302 301 301 301 301 301 301 301 301 301 300 300 300
338 337 336 336 335 333 333 333 333 332 332 331 330 329 328 327 327 326 325 325 325 325 325 322 318 315 311 306 303 301 300 300 300 301 301 301 301 301 300 300 300 300
338 337 336 335 334 333 333 333 333 332 331 331 330 329 328 327 326 325 324 324 324 324 324 321 315 311 308 304 301 300 300 300 300 300 300 300 300 300 300 300 300 300
338 336 335 335 334 333 333 332 332 331 331 331 330 328 327 326 326 325 325 325 324 323 322 318 311 307 304 302 300 300 300 300 300 300 300 300 300 300 300 300 300 299
337 336 335 335 334 334 333 331 330 330 330 330 329 328 327 326 325 325 325 325 324 321 318 313 308 304 302 300 300 300 300 300 300 300 300 300 300 300 300 300 299 299
336 336 335 335 335 334 333 331 330 330 330 329 328 327 327 326 326 326 326 325 322 319 315 310 305 303 301 300 299 299 299 299 299 300 300 300 300 300 300 299 299 299
336 336 335 335 335 335 333 330 330 330 330 329 328 328 327 327 326 326 326 324 320 315 311 307 304 301 300 299 299 299 299 299 299 300 300 300 300 299 299 299 299 299
336 335 335 335 335 334 332 330 330 330 329 328 328 328 327 327 326 326 325 323 317 312 308 304 302 300 299 299 299 299 299 299 299 299 299 299 299 299 299 299 299 298
336 335 335 336 335 334 332 330 330 330 329 329 328 328 327 326 326 326 324 320 313 309 306 303 301 299 299 298 299 299 299 299 299 299 299 299 299 299 299 299 298 298
336 336 336 336 336 334 332 331 331 330 329 329 328 328 327 326 326 325 322 317 311 306 304 301 300 299 298 299 299 299 299 299 299 299 299 299 299 299 299 298 298 298
336 337 337 336 335 334 332 331 331 330 329 329 328 327 326 326 325 324 321 315 310 306 303 301 300 299 298 299 299 299 299 299 299 298 298 299 299 299 299 298 298 298
337 337 337 336 335 333 332 331 331 330 329 329 328 327 326 325 325 323 319 314 309 305 303 302 300 299 299 298 298 298 298 298 298 298 298 298 298 298 298 298 298 298
336 337 336 336 334 333 332 331 331 330 329 329 328 327 326 325 324 322 319 313 309 305 304 302 301 300 299 299 299 298 298 298 298 298 298 298 298 298 298 298 298 297
336 337 336 336 334 333 333 332 331 330 329 329 328 327 326 325 323 321 318 313 308 306 304 303 302 301 300 299 299 299 298 298 298 298 298 298 298 298 298 298 297 297
336 337 336 336 334 333 333 332 331 330 329 328 328 327 326 325 323 321 317 312 308 306 304 303 302 302 301 301 300 299 299 299 298 298 298 298 298 298 298 297 297 297
336 336 336 335 334 333 332 331 330 329 328 328 328 327 326 325 324 322 318 312 308 306 305 304 303 303 303 302 301 300 300 299 298 298 298 299 300 299 298 297 296 296
336 336 336 335 334 333 332 330 330 329 328 328 328 327 326 325 324 322 319 313 309 307 306 305 304 304 303 303 302 301 300 299 299 298 299 299 300 300 298 297 296 296
337 337 336 334 332 332 331 330 329 328 328 328 328 326 326 325 324 323 320 314 310 308 306 306 305 305 304 304 303 302 301 301 299 299 299 299 300 300 298 296 296 296
337 336 335 332 331 331 330 329 328 327 328 329 328 327 326 325 325 324 320 316 312 309 308 307 306 306 305 305 304 303 302 302 300 299 299 299 299 299 297 296 296 296
336 335 333 332 331 331 330 328 327 327 328 328 327 327 327 326 325 324 322 318 313 310 309 308 307 307 306 306 305 304 303 302 301 300 299 299 299 298 297 297 297 297
333 333 332 331 331 330 329 328 328 328 328 328 327 327 326 326 325 324 322 319 314 311 309 309 308 308 307 307 306 305 304 302 301 301 299 298 298 298 297 297 298 298
Wind_Speed
35 34 33 31 31 29 27 27 26 25 25 26 26 24 24 23 23 22 21 19 18 18 17 16 16 17 17 17 17 18 17 17 17 18 18 18 17 16 15 14 14 14
36 34 33 31 31 29 28 27 25 23 23 25 25 24 24 24 23 22 20 19 18 17 16 17 17 17 17 16 16 17 17 17 18 18 18 18 17 16 15 14 14 13
36 35 33 32 32 30 28 27 25 22 22 24 25 25 25 24 23 22 21 20 19 17 16 17 17 17 16 16 16 16 16 16 17 18 18 17 17 15 14 13 12 12
36 36 34 33 32 30 28 27 26 23 22 23 25 25 25 23 22 22 21 21 20 18 18 18 17 17 17 16 16 16 16 16 17 17 18 17 16 15 14 13 12 12
36 36 35 33 32 29 28 28 27 25 23 23 25 25 24 23 22 22 22 21 21 20 20 20 18 18 17 17 16 16 17 17 18 18 18 17 16 15 14 13 12 12
36 36 34 33 31 29 28 28 27 25 24 24 24 24 23 22 22 21 21 21 20 20 21 21 20 19 18 17 16 17 17 18 19 19 18 17 16 15 14 14 13 13
37 36 34 32 30 28 28 28 27 26 25 24 24 24 23 22 20 19 18 18 19 20 21 22 21 19 18 17 17 18 18 19 19 19 18 17 16 15 15 14 14 14
37 35 34 32 30 29 28 28 28 27 25 24 25 24 23 20 19 17 16 17 18 20 21 22 22 19 18 18 18 19 20 20 20 19 18 17 16 15 15 15 14 14
36 35 34 33 31 30 30 29 29 27 26 25 25 24 21 19 18 17 16 16 17 19 20 22 21 19 18 19 19 20 20 20 20 19 18 17 16 15 15 14 14 14
36 36 35 33 32 32 32 31 29 27 27 26 25 23 21 19 18 17 17 17 18 19 20 21 20 19 19 19 20 20 20 20 19 18 17 16 15 15 14 14 14 13
36 36 36 35 34 33 32 30 29 28 28 27 25 23 21 20 20 19 18 18 18 19 20 20 20 19 19 20 20 20 19 19 19 18 17 16 15 14 14 13 13 13
37 37 38 36 35 34 32 30 29 29 29 27 25 24 23 22 21 20 19 18 18 19 19 19 19 18 19 20 20 20 20 19 19 18 17 16 15 15 14 13 13 13
38 38 38 37 37 35 33 31 30 30 30 28 26 25 24 23 21 20 19 19 18 19 19 19 19 19 19 20 20 20 20 20 19 18 18 17 16 15 15 14 14 13
38 38 39 39 38 36 33 32 31 30 30 28 26 25 25 23 20 19 19 19 19 20 19 19 19 19 20 20 20 20 20 20 20 19 18 17 17 16 15 14 13 13
39 39 40 40 38 35 33 33 32 31 30 29 27 26 24 21 18 18 19 20 20 20 20 20 20 20 20 20 19 19 20 20 20 19 19 18 17 16 15 14 13 13
40 41 40 39 37 35 34 35 33 32 31 29 27 26 24 20 18 18 20 21 21 21 20 20 20 20 19 19 19 19 19 20 20 19 19 18 17 15 14 14 13 13
41 42 40 38 38 36 36 36 34 33 32 29 27 26 23 20 18 19 21 22 21 21 21 20 20 19 19 19 18 19 19 20 20 19 18 17 16 15 14 14 14 14
42 43 40 38 38 37 38 38 36 34 32 28 26 26 23 20 19 20 21 22 21 21 21 20 19 19 19 18 18 19 19 19 19 18 17 16 16 15 14 14 14 14
42 43 41 39 39 39 40 38 36 35 32 28 28 26 22 20 20 20 21 22 22 21 21 20 19 19 18 18 19 19 20 19 18 17 17 16 16 15 15 14 14 14
43 44 42 40 40 41 40 38 36 34 31 29 29 26 22 21 21 21 22 22 22 21 21 20 19 19 18 18 19 19 20 19 18 17 17 16 15 16 16 15 15 15
44 45 43 41 41 41 40 38 36 33 30 30 29 26 22 21 21 22 23 23 22 22 21 21 20 19 19 19 19 19 20 19 18 18 18 17 16 17 17 17 16 15
46 46 44 43 43 42 40 38 36 32 30 31 29 25 22 22 22 22 23 23 23 23 23 22 21 20 20 20 19 19 19 20 19 19 18 19 18 18 18 19 18 16
46 45 44 44 45 43 40 37 34 32 31 31 30 27 24 23 23 23 24 24 24 24 24 24 23 22 21 21 20 20 20 20 20 19 19 19 19 18 19 20 18 16
46 46 46 45 44 40 35 33 33 33 33 33 32 28 24 23 23 23 24 24 24 25 26 26 25 22 21 21 21 21 20 19 19 20 19 19 20 20 20 20 19 17
49 48 45 43 42 35 29 30 33 33 33 34 33 28 25 24 24 24 25 25 25 26 26 26 25 22 21 22 22 22 21 19 18 19 20 20 21 21 21 21 20 19
48 45 44 43 38 28 24 30 34 34 35 36 34 30 28 27 26 25 25 25 26 27 27 27 26 23 22 22 22 22 22 20 19 20 21 21 22 22 22 22 21 20
Wind_Direction
222 223 224 227 228 229 230 234 235 232 229 228 228 230 233 235 235 234 232 230 232 237 236 227 219 217 216 215 217 219 223 226 227 230 231 230 230 228 227 225 224 226
221 222 224 227 229 228 230 234 237 237 233 228 227 230 232 235 235 235 234 230 232 236 230 221 217 215 215 216 218 220 222 224 224 226 227 226 226 225 225 226 226 228
221 221 224 227 228 228 229 232 235 237 234 227 224 227 231 234 235 234 233 230 233 235 227 221 218 215 216 216 218 219 221 223 222 222 221 220 221 222 222 223 225 228
220 222 224 226 227 227 229 231 233 234 230 223 222 226 230 234 234 232 231 231 234 234 229 224 220 217 217 217 217 217 217 218 219 219 217 215 216 218 220 220 222 223
220 222 224 225 225 225 228 231 233 232 227 222 222 226 229 231 231 230 231 232 235 235 231 227 223 219 218 217 215 215 215 215 216 216 215 215 216 217 218 219 219 220
220 222 222 223 223 223 226 228 230 229 226 224 224 226 227 226 228 230 233 236 237 237 234 229 225 221 218 216 214 214 215 216 215 214 214 216 218 217 216 216 217 219
219 220 220 221 220 222 225 227 227 225 224 226 226 226 224 225 228 233 238 242 241 239 237 232 226 221 217 214 213 213 214 215 216 215 214 216 218 218 217 216 217 219
218 218 219 220 219 221 225 226 224 222 223 226 225 224 225 228 233 238 243 247 245 241 237 229 222 218 216 214 213 213 213 213 214 215 216 217 218 219 218 217 216 217
219 219 218 219 219 219 222 223 221 221 223 224 223 222 224 230 236 243 250 252 248 242 233 224 216 212 213 215 215 215 215 214 213 215 218 220 221 220 219 218 217 215
220 220 217 217 219 220 223 222 219 220 221 220 220 221 225 231 236 244 252 255 250 240 228 218 211 209 211 214 215 216 215 216 215 216 219 221 222 222 221 220 217 214
218 218 216 216 218 223 225 221 217 218 218 217 218 221 226 231 237 244 252 255 250 238 224 214 208 208 210 213 214 214 214 217 219 219 220 221 221 221 221 220 217 216
216 216 216 216 221 225 224 219 217 218 216 215 218 222 226 231 238 246 253 255 246 231 218 211 207 208 212 214 214 213 213 216 219 221 222 222 221 219 219 218 216 217
216 215 216 219 223 222 219 217 219 218 215 215 219 223 228 231 237 247 253 251 237 220 211 209 209 210 212 215 215 215 216 217 219 221 222 222 221 220 219 218 218 220
215 215 217 219 219 217 216 218 218 217 215 216 220 226 229 231 238 248 251 242 226 212 208 210 211 212 213 214 216 218 219 220 221 222 222 222 222 221 222 221 220 222
215 215 215 215 214 214 216 217 217 216 215 217 222 227 228 230 239 248 245 233 218 207 207 210 212 215 216 217 219 220 220 221 222 223 224 224 224 224 222 221 221 221
215 213 213 214 214 215 217 216 214 214 215 217 222 226 225 228 238 244 239 228 215 207 208 212 214 216 218 220 223 224 223 223 223 224 225 225 227 227 225 222 221 220
214 212 213 215 216 216 216 214 213 213 214 217 222 223 223 229 238 240 236 226 216 211 211 213 215 217 218 220 223 224 225 225 226 227 227 228 230 231 230 228 224 220
214 212 213 215 214 215 214 213 212 212 214 218 224 224 223 230 237 238 234 225 216 214 215 215 217 217 218 220 221 222 223 224 226 228 230 232 235 235 233 231 228 223
213 213 214 214 214 213 213 212 211 212 215 222 227 225 225 231 236 237 233 224 217 217 218 218 218 219 219 220 221 222 222 220 223 227 231 234 237 239 237 233 229 226
213 213 214 215 214 211 210 211 213 214 218 226 227 223 224 231 235 237 233 225 219 220 220 219 220 221 221 221 221 222 222 222 224 225 226 229 235 240 240 237 232 228
213 212 213 214 212 210 210 212 213 215 222 227 225 222 227 235 239 241 235 225 221 221 221 221 222 223 224 223 224 225 225 226 226 224 225 229 233 235 237 237 235 229
212 210 211 211 210 208 209 209 211 217 225 227 222 221 229 236 241 244 239 227 221 222 223 224 224 226 227 227 227 229 230 229 226 224 228 233 234 233 234 234 233 229
212 211 210 208 205 204 207 210 214 221 227 227 221 220 226 234 240 246 241 230 224 224 225 225 225 227 230 232 232 231 230 229 228 230 235 236 235 235 235 234 233 229
213 211 209 206 203 203 210 218 222 224 226 225 220 220 227 236 242 247 242 232 227 227 227 227 228 230 233 235 236 235 234 234 234 236 239 236 233 235 236 235 234 230
212 207 207 208 206 207 218 226 225 224 225 222 218 220 229 236 242 246 243 235 230 229 230 230 230 232 235 236 237 239 242 244 241 238 237 235 233 234 234 234 235 234
208 207 209 209 207 211 224 228 225 224 224 220 216 217 224 230 237 241 240 235 230 228 229 231 232 233 236 240 242 242 245 247 243 238 238 236 234 233 233 234 236 238